FW8733 Weather Reports


time (UTC)temp
F
wind
direction
speed
knots
gust
knots
rain 1hr
in
rain 24hr
in
rain mn
in
humidity
%
barometer
mb
20260502201725 77 203 1.7 1.7 0.00 0.00 0.00 48 1024.3
20260502201222 76 255 0.0 0.0 0.00 0.00 0.00 44 1024.4
20260502200718 77 221 0.0 0.9 0.00 0.00 0.00 43 1024.7
20260502200214 78 168 0.9 1.7 0.00 0.00 0.00 42 1024.5
20260502195713 77 243 0.0 0.0 0.00 0.00 0.00 49 1024.5
20260502195209 77 208 0.0 0.9 0.00 0.00 0.00 51 1024.7
20260502194706 77 266 0.9 0.9 0.00 0.00 0.00 50 1024.6
20260502194203 76 238 0.9 0.9 0.00 0.00 0.00 49 1024.8
20260502193658 75 239 0.9 1.7 0.00 0.00 0.00 45 1024.7
20260502193156 75 239 0.0 0.0 0.00 0.00 0.00 46 1024.7
20260502192651 75 160 1.7 2.6 0.00 0.00 0.00 49 1024.8
20260502192149 75 198 0.0 0.0 0.00 0.00 0.00 49 1024.8
20260502191645 75 254 0.0 0.0 0.00 0.00 0.00 48 1024.7
20260502191143 75 206 0.9 1.7 0.00 0.00 0.00 49 1024.9
20260502190640 75 222 1.7 1.7 0.00 0.00 0.00 52 1024.8
20260502190139 75 207 0.9 0.9 0.00 0.00 0.00 50 1024.8
20260502185637 75 236 0.9 0.9 0.00 0.00 0.00 52 1024.8
20260502185135 75 246 0.9 0.9 0.00 0.00 0.00 50 1025.1
20260502184631 75 237 2.6 4.3 0.00 0.00 0.00 49 1024.9
20260502184127 75 208 0.9 1.7 0.00 0.00 0.00 49 1025.0
20260502183624 75 185 0.9 0.9 0.00 0.00 0.00 49 1025.1
20260502183120 75 210 0.0 0.0 0.00 0.00 0.00 53 1025.2
20260502182615 75 224 0.0 0.0 0.00 0.00 0.00 56 1025.3
20260502182111 75 201 0.0 0.9 0.00 0.00 0.00 59 1025.3
20260502181609 75 199 0.9 0.9 0.00 0.00 0.00 59 1025.3
20260502181108 74 201 0.0 0.9 0.00 0.00 0.00 56 1025.5
20260502180605 74 180 2.6 2.6 0.00 0.00 0.00 56 1025.5
20260502164008 70 210 0.0 0.0 0.00 0.00 0.00 62 1026.5
20260502163503 69 239 0.9 1.7 0.00 0.00 0.00 59 1026.4
20260502163000 69 190 0.0 0.0 0.00 0.00 0.00 66 1026.6
20260502162457 70 234 0.0 0.9 0.00 0.00 0.00 66 1026.7
20260502161954 68 234 0.0 0.0 0.00 0.00 0.00 65 1026.6
20260502161450 67 222 2.6 2.6 0.00 0.00 0.00 67 1026.6
20260502160949 66 255 0.9 0.9 0.00 0.00 0.00 71 1026.7
20260502160446 67 261 0.0 0.9 0.00 0.00 0.00 68 1026.7
20260502151930 64 252 0.9 1.7 0.00 0.00 0.00 75 1026.7
20260502151426 64 253 0.9 0.9 0.00 0.00 0.00 74 1026.8
20260502150924 64 254 0.0 0.9 0.00 0.00 0.00 77 1026.9
20260502150420 64 235 0.0 0.0 0.00 0.00 0.00 76 1026.5
20260502130306 53 235 0.0 0.0 0.00 0.00 0.00 99 1025.5
20260502123751 51 246 0.0 0.0 0.00 0.00 0.00 99 1025.2
20260502123248 51 254 0.0 0.0 0.00 0.00 0.00 99 1025.0
20260502122745 51 252 0.0 0.0 0.00 0.00 0.00 99 1025.2
20260502122241 50 252 0.0 0.0 0.00 0.00 0.00 99 1025.0
20260502121740 50 242 0.0 0.0 0.00 0.00 0.00 99 1024.9
20260502121237 51 242 0.0 0.0 0.00 0.00 0.00 99 1024.7
20260502120733 50 242 0.0 0.0 0.00 0.00 0.00 99 1024.6
20260502120230 50 242 0.0 0.0 0.00 0.00 0.00 99 1024.5
20260502115728 50 242 0.0 0.0 0.00 0.00 0.00 99 1024.4
20260502115225 50 242 0.0 0.0 0.00 0.00 0.00 99 1024.3
20260502114720 50 242 0.0 0.0 0.00 0.00 0.00 99 1024.1
20260502114218 50 242 0.0 0.0 0.00 0.00 0.00 99 1024.2
20260502113715 50 242 0.0 0.0 0.00 0.00 0.00 99 1024.2
20260502113213 50 242 0.0 0.0 0.00 0.00 0.00 99 1023.9
20260502112711 50 242 0.0 0.0 0.00 0.00 0.00 99 1023.8
20260502112208 50 242 0.0 0.0 0.00 0.00 0.00 99 1024.1
20260502111705 50 242 0.0 0.0 0.00 0.00 0.00 99 1023.8
20260502111203 50 242 0.0 0.0 0.00 0.00 0.00 99 1023.9
20260502110700 50 243 0.0 0.0 0.00 0.00 0.00 99 1024.0
20260502110157 50 242 0.0 0.0 0.00 0.00 0.00 99 1023.8
20260502105655 50 242 0.0 0.0 0.00 0.00 0.00 99 1023.7
20260502105152 50 242 0.0 0.0 0.00 0.00 0.00 99 1023.7
20260502104649 50 242 0.0 0.0 0.00 0.00 0.00 99 1023.6
20260502104147 50 242 0.0 0.0 0.00 0.00 0.00 99 1023.6
20260502103644 50 243 0.0 0.0 0.00 0.00 0.00 98 1023.3
20260502103141 50 242 0.0 0.0 0.00 0.00 0.00 98 1023.5
20260502102638 50 242 0.0 0.0 0.00 0.00 0.00 98 1023.4
20260502102135 50 242 0.0 0.0 0.00 0.00 0.00 98 1023.1
20260502101633 50 242 0.0 0.0 0.00 0.00 0.00 98 1023.1
20260502101131 50 243 0.0 0.0 0.00 0.00 0.00 98 1023.0
20260502100629 50 242 0.0 0.0 0.00 0.00 0.00 98 1023.0
20260502100127 50 242 0.0 0.0 0.00 0.00 0.00 98 1022.9
20260502091101 50 253 0.0 0.0 0.00 0.00 0.00 98 1022.6
20260502090558 50 249 0.0 0.0 0.00 0.00 0.00 99 1022.3
20260502071458 51 249 0.0 0.0 0.00 0.00 0.00 99 1022.1
20260502070956 52 249 0.0 0.0 0.00 0.00 0.00 99 1022.2
20260502070454 52 249 0.0 0.0 0.00 0.00 0.00 99 1022.3
20260502065952 52 249 0.0 0.0 0.00 0.00 0.00 99 1022.2
20260502065451 52 245 0.0 0.0 0.00 0.00 0.00 99 1022.0
20260502064948 52 245 0.0 0.0 0.00 0.00 0.00 99 1022.3
20260502064446 52 245 0.0 0.0 0.00 0.00 0.00 99 1022.0
20260502063943 52 245 0.0 0.0 0.00 0.00 0.00 99 1021.9
20260502063441 52 246 0.0 0.0 0.00 0.00 0.00 99 1022.0
20260502062938 52 245 0.0 0.0 0.00 0.00 0.00 99 1021.9
20260502062435 52 244 0.0 0.0 0.00 0.00 0.00 99 1022.0
20260502061934 52 245 0.0 0.0 0.00 0.00 0.00 99 1022.3
20260502061431 52 245 0.0 0.0 0.00 0.00 0.00 99 1022.1
20260502060927 52 245 0.0 0.0 0.00 0.00 0.00 99 1022.3
20260502060422 52 245 0.0 0.0 0.00 0.00 0.00 99 1022.1
20260502055920 52 245 0.0 0.0 0.00 1.23 1.23 99 1022.3
20260502055418 52 245 0.0 0.0 0.00 1.23 1.23 99 1022.3
20260502054917 52 245 0.0 0.0 0.00 1.23 1.23 99 1022.3
20260502054414 52 245 0.0 0.0 0.00 1.23 1.23 99 1022.3
20260502053912 52 245 0.0 0.0 0.00 1.23 1.23 99 1022.1
20260502053409 52 245 0.0 0.0 0.00 1.23 1.23 99 1022.3
20260502052906 52 246 0.0 0.0 0.00 1.23 1.23 99 1022.2
20260502052405 52 245 0.0 0.0 0.00 1.23 1.23 99 1022.3
20260502051902 53 245 0.0 0.0 0.00 1.23 1.23 99 1022.1
20260502051400 52 245 0.0 0.0 0.00 1.23 1.23 99 1022.1
20260502050857 52 245 0.0 0.0 0.00 1.23 1.23 99 1022.1
20260502050353 53 246 0.0 0.0 0.00 1.23 1.23 99 1022.1
20260502045850 52 246 0.0 0.0 0.00 1.23 1.23 99 1021.7
20260502045347 53 245 0.0 0.0 0.00 1.23 1.23 99 1021.8
20260502044844 53 245 0.0 0.0 0.00 1.23 1.23 99 1021.8
20260502044340 53 245 0.0 0.0 0.00 1.23 1.23 99 1021.9
20260502043837 53 246 0.0 0.0 0.00 1.23 1.23 99 1022.0
20260502043335 52 246 0.0 0.0 0.00 1.23 1.23 99 1021.7
20260502042834 53 246 0.0 0.0 0.00 1.23 1.23 98 1021.9
20260502042332 53 246 0.0 0.0 0.00 1.23 1.23 98 1021.8
20260502041829 53 246 0.0 0.0 0.00 1.23 1.23 98 1021.8
20260502041326 53 246 0.0 0.0 0.00 1.23 1.23 98 1021.9
20260502040823 53 246 0.0 0.0 0.00 1.23 1.23 98 1022.1
20260502040320 53 246 0.0 0.0 0.00 1.23 1.23 98 1021.7
20260502035816 53 246 0.0 0.0 0.00 1.23 1.23 98 1021.9
20260502035313 53 245 0.9 1.7 0.00 1.23 1.23 98 1022.1
20260502034810 53 254 0.0 0.0 0.00 1.23 1.23 98 1021.9
20260502034309 54 240 0.0 0.0 0.00 1.23 1.23 98 1021.7
20260502033807 54 239 0.0 0.0 0.00 1.23 1.23 98 1021.6
20260502033304 54 250 0.0 0.0 0.00 1.23 1.23 98 1021.9
20260502032800 54 250 0.0 0.0 0.00 1.23 1.23 98 1022.0
20260502032257 54 251 0.0 0.0 0.00 1.23 1.23 98 1022.0
20260502031755 54 259 0.0 0.9 0.00 1.23 1.23 98 1021.9
20260502031252 54 241 0.0 0.0 0.00 1.23 1.23 98 1022.0
20260502030751 54 233 0.0 0.0 0.00 1.23 1.23 98 1022.0
20260502030248 54 253 0.0 0.0 0.00 1.23 1.23 98 1021.9
20260502025745 54 248 0.0 0.0 0.00 1.23 1.23 98 1021.7
20260502025243 54 239 0.0 0.0 0.00 1.23 1.23 99 1021.5
20260502024741 54 228 0.0 0.0 0.00 1.23 1.23 99 1021.4
20260502024238 54 209 0.0 0.0 0.00 1.23 1.23 99 1021.1
20260502023736 54 239 0.0 0.9 0.00 1.23 1.23 99 1021.1
20260502023234 54 208 0.0 0.9 0.00 1.23 1.23 99 1021.1
20260502022732 54 219 0.9 1.7 0.00 1.23 1.23 99 1021.1
20260502022227 54 236 0.0 0.0 0.00 1.23 1.23 99 1021.1
20260502021725 54 243 0.0 0.0 0.00 1.23 1.23 99 1020.9
20260502021222 54 228 0.0 0.0 0.00 1.23 1.23 99 1020.7
20260502020719 53 223 0.9 2.6 0.00 1.23 1.23 99 1020.5
20260502020216 53 217 0.0 0.0 0.00 1.23 1.23 99 1020.6
20260502015714 54 244 0.0 0.9 0.00 1.23 1.23 99 1020.6
20260502015210 54 246 0.0 0.0 0.00 1.23 1.23 99 1020.5
20260502014708 54 243 0.0 0.0 0.00 1.23 1.23 99 1020.4
20260502014205 54 232 0.0 0.0 0.00 1.23 1.23 99 1020.3
20260502013700 54 231 0.0 0.0 0.00 1.23 1.23 99 1020.2
20260502013155 54 246 0.9 0.9 0.00 1.23 1.23 99 1020.3
20260502012653 54 217 0.0 0.9 0.00 1.23 1.23 99 1020.1
20260502012152 54 228 0.0 0.9 0.00 1.23 1.23 99 1020.1
20260502011648 54 222 0.9 0.9 0.00 1.23 1.23 99 1019.9
20260502011143 54 244 0.0 0.0 0.00 1.23 1.23 99 1019.9
20260502010641 54 239 0.0 0.0 0.00 1.23 1.23 99 1019.9
20260502010138 54 232 0.0 0.0 0.00 1.23 1.23 99 1019.5
20260502005635 54 205 1.7 2.6 0.00 1.23 1.23 99 1019.8
20260502005133 54 226 0.9 1.7 0.00 1.23 1.23 99 1019.4
20260502004628 54 232 0.0 0.0 0.00 1.23 1.23 99 1019.2
20260502004125 54 221 0.9 1.7 0.00 1.23 1.23 99 1019.2
20260502003624 54 203 0.0 0.9 0.00 1.23 1.23 99 1019.0
20260502003120 54 184 0.9 1.7 0.00 1.23 1.23 99 1019.1
20260502002616 54 242 0.0 0.9 0.00 1.23 1.23 99 1019.0
20260502002114 54 224 0.0 0.9 0.00 1.23 1.23 99 1019.1
20260502001611 54 252 0.0 0.0 0.00 1.23 1.23 99 1018.9
20260502001108 53 194 0.0 1.7 0.00 1.23 1.23 99 1018.9
20260502000607 54 222 0.0 0.9 0.00 1.23 1.23 99 1018.8
20260501235559 54 281 3.5 5.2 0.00 1.23 1.23 99 1018.4
20260501235055 55 262 1.7 1.7 0.05 1.23 1.23 99 1018.1
20260501234551 55 237 0.0 0.0 0.05 1.23 1.23 99 1018.3
20260501234049 55 228 0.0 0.0 0.00 1.22 1.22 99 1018.1
20260501233547 55 221 0.0 1.7 0.00 1.22 1.22 99 1017.9
20260501233044 55 209 0.0 0.0 0.00 1.22 1.22 99 1018.1
20260501232540 56 224 0.0 0.0 0.00 1.22 1.22 99 1018.2
20260501232037 56 246 0.0 0.0 0.00 1.22 1.22 99 1018.2
20260501231535 56 247 0.0 0.0 0.00 1.22 1.22 99 1018.1
20260501231033 55 236 0.0 0.0 0.00 1.22 1.22 99 1017.9
20260501230532 56 240 0.9 0.9 0.00 1.22 1.22 99 1018.0
20260501230029 56 233 0.9 2.6 0.00 1.22 1.22 99 1017.7
20260501225526 56 236 0.0 0.0 0.00 1.22 1.22 99 1017.7
20260501225022 56 234 0.0 0.9 0.00 1.22 1.22 99 1017.6
20260501224520 56 252 0.0 0.0 0.00 1.22 1.22 99 1017.8
20260501224017 56 228 0.0 0.0 0.00 1.22 1.22 99 1017.9
20260501223513 56 252 0.0 0.0 0.00 1.22 1.22 99 1017.7
20260501223009 56 251 0.0 0.0 0.00 1.22 1.22 99 1017.9
20260501222506 56 246 0.9 1.7 0.00 1.22 1.22 99 1017.9
20260501222003 56 231 0.0 0.0 0.07 1.22 1.22 99 1017.5
20260501221459 56 285 1.7 2.6 0.07 1.22 1.22 99 1017.4
20260501220957 57 230 0.0 0.0 0.00 1.21 1.21 99 1017.5
20260501220455 57 240 0.0 0.0 0.05 1.21 1.21 99 1017.8
20260501215951 57 217 0.0 0.0 0.12 1.21 1.21 99 1017.6
20260501215448 56 209 0.0 0.0 0.19 1.20 1.20 99 1017.3
20260501214943 56 205 0.9 1.7 0.17 1.19 1.19 99 1017.4
20260501214438 56 250 0.0 0.0 0.12 1.18 1.18 99 1017.2
20260501213934 56 227 0.9 0.9 0.12 1.17 1.17 99 1017.2
20260501213432 57 218 0.9 1.7 0.19 1.15 1.15 99 1017.5
20260501212927 57 248 0.0 0.0 0.24 1.15 1.15 99 1017.8
20260501212424 57 219 0.0 0.0 0.19 1.13 1.13 99 1017.8
20260501211920 57 256 0.9 0.9 0.19 1.11 1.11 99 1017.7
20260501211418 57 259 0.0 0.9 0.07 1.09 1.09 99 1017.1
20260501210915 57 227 0.0 0.0 0.07 1.09 1.09 99 1016.7
20260501210412 57 212 0.9 0.9 0.00 1.08 1.08 99 1016.3
20260501205909 57 236 0.0 0.0 0.00 1.08 1.08 99 1016.5
20260501205406 57 243 0.0 0.0 0.00 1.08 1.08 99 1016.5
20260501204903 58 243 0.9 1.7 0.00 1.08 1.08 99 1016.5
20260501204358 58 247 0.0 0.0 0.00 1.08 1.08 99 1016.3
20260501203854 58 208 0.9 1.7 0.00 1.08 1.08 99 1015.7
20260501203352 58 241 0.0 0.0 0.00 1.08 1.08 99 1015.6
20260501202849 58 231 0.0 0.0 0.00 1.08 1.08 99 1016.0
20260501202346 58 316 0.9 1.7 0.05 1.08 1.08 99 1015.3